Location: Narrabri
(30.3170°S, 149.7830°E)
Time: 03:22:44
(UTC+10:00)

N. Korean satellite - Visible Passes

Search period start: 20 September 2018 00:00
Search period end: 30 September 2018 00:00
Orbit: 458 x 511 km, 97.2° (Epoch: 19 September)

Date Brightness Start Highest point End Pass type
(mag) Time Alt. Az. Time Alt. Az. Time Alt. Az.
20 Sep 8.9 18:53:39 10° SSW 18:56:38 26° WSW 18:59:33 10° NW visible
21 Sep 8.3 05:23:09 10° NE 05:26:40 40° ESE 05:30:11 10° S visible
21 Sep 7.1 18:28:55 10° S 18:32:24 63° WSW 18:35:48 10° NNW visible
22 Sep 9.8 04:59:47 10° ENE 05:02:29 19° ESE 05:05:10 10° SSE visible
23 Sep 9.9 19:15:03 10° SW 19:16:53 14° WSW 19:18:44 10° WNW visible
24 Sep 8.7 18:49:38 10° SSW 18:52:43 29° WSW 18:55:46 10° NW visible
25 Sep 8.6 05:19:23 10° NE 05:22:47 36° ESE 05:26:12 10° S visible
25 Sep 6.8 18:24:58 10° S 18:28:28 72° WSW 18:31:54 10° NNW visible
26 Sep 9.9 04:56:09 10° ENE 04:58:37 17° ESE 05:01:03 10° SSE visible
27 Sep 9.9 19:10:51 10° SW 19:12:58 15° WSW 19:15:05 10° WNW visible
28 Sep 8.5 18:45:36 10° S 18:48:46 33° WSW 18:51:55 10° NW visible
29 Sep 8.9 05:15:35 10° NE 05:18:52 31° ESE 05:22:09 10° SSE visible
29 Sep 6.6 18:21:00 10° S 18:24:29 83° WSW 18:27:57 10° NNW visible
